Regional Weather Roundup
Issued by NWS

Home | Current Version | Previous Version | Graphics & Text | Print | Product List | Glossary On
Versions: 1 2 3 4 5 6 7 8 9 10 11 12 13 14 15 16 17 18 19 20 21 22 23 24 25 26 27 28 29 30 31 32 33 34 35 36 37 38 39 40 41 42 43 44 45 46 47 48 49 50
000
ASUS43 KMKX 131311
RWRWI

WISCONSIN REGIONAL WEATHER ROUNDUP
NATIONAL WEATHER SERVICE MILWAUKEE/SULLIVAN WI
800 AM CDT SUN JUL 13 2014

NOTE: "FAIR" INDICATES FEW OR NO CLOUDS BELOW 12,000 FEET WITH NO
SIGNIFICANT WEATHER AND/OR OBSTRUCTIONS TO VISIBILITY.

WIZ001-002-006>008-014>016-023>028-131400-
NORTHWEST WISCONSIN

CITY           SKY/WX    TMP DP  RH WIND       PRES   REMARKS
SUPERIOR ARPT  SUNNY     59  51  74 NW9       29.92S
ASHLAND        SUNNY     58  52  80 VRB5      29.92R
HAYWARD        SUNNY     58  51  78 NW3       29.94R
SIREN          SUNNY     58  52  79 NW6       29.96R
RICE LAKE      SUNNY     59  53  80 W6        29.96R
LADYSMITH      SUNNY     60  55  83 NW9       29.94R
EAU CLAIRE     SUNNY     63  59  87 NW7       29.93R
MENOMONIE      SUNNY     64  59  85 NW5       29.96R
NEW RICHMOND   SUNNY     61  56  85 NW6       29.97R
OSCEOLA        SUNNY     61  56  85 NW5       29.99S
$$

WIZ003>005-009-010-017-018-131400-
NORTH CENTRAL WISCONSIN

CITY           SKY/WX    TMP DP  RH WIND       PRES   REMARKS
WOODRUFF       MOSUNNY   61  54  79 NW9       29.90R
RHINELANDER    MOSUNNY   60  54  80 NW10      29.90R
EAGLE RIVER    SUNNY     57  49  76 NW9G16    29.89R
LAND O LAKES   SUNNY     56  49  76 NW9       29.90R
PHILLIPS       MOSUNNY   58  53  83 NW6       29.91S
TOMAHAWK       PTSUNNY   59  56  88 W7        29.91R
MEDFORD        CLOUDY    60  57  90 NW7       29.92R
MERRILL        PTSUNNY   63  59  86 NW10      29.90R
$$

WIZ029-030-035-036-043>047-131400-
CENTRAL WISCONSIN

CITY           SKY/WX    TMP DP  RH WIND       PRES   REMARKS
WAUSAU         SUNNY     66  61  84 W13       29.88R
MOSINEE        PTSUNNY   64  64 100 W8        29.91R
MARSHFIELD     CLOUDY    65  62  90 W9        29.91R
STEVENS POINT  CLOUDY    63  61  93 W7        29.91R
WAUPACA        MOSUNNY   68  64  84 W10       29.90R
WAUTOMA        PTSUNNY   69  65  87 CALM      29.91S
WISC RAPIDS    PTSUNNY   66  64  93 W7        29.91F
CAMP DOUGLAS   MOSUNNY   68  68 100 W7        29.92R
$$

WIZ011>013-019>022-031-037>040-048>050-131400-
NORTHEAST WISCONSIN

CITY           SKY/WX    TMP DP  RH WIND       PRES   REMARKS
ANTIGO         PTSUNNY   63  59  88 W9G17     29.89R
STURGEON BAY   PTSUNNY   66  61  82 W9        29.85S
GREEN BAY      CLOUDY    67  63  87 W9        29.87R
MANITOWOC      SUNNY     68  63  84 W14       29.87R
APPLETON       PTSUNNY   64  63  94 W10       29.89S
CLINTONVILLE   PTSUNNY   66  63  88 W8        29.88R
OSHKOSH        MOSUNNY   66  63  90 W12       29.89S
$$

WIZ032>034-041-042-053>061-131400-
SOUTHWEST WISCONSIN

CITY           SKY/WX    TMP DP  RH WIND       PRES   REMARKS
LA CROSSE      PTSUNNY   69  65  86 W8        29.93R
SPARTA         PTSUNNY   64  64  97 W5        29.93R FOG
VIROQUA        PTSUNNY   65  65 100 SW8       29.95S
BOSCOBEL       CLOUDY    68  65  90 SW7       29.95S
PRAIRIE DU CHI CLOUDY    67  64  89 W3        29.96S
PLATTEVILLE    CLOUDY    66  65  96 W7        29.99R
$$

WIZ056-057-062-063-064-067-068-131400-
SOUTH CENTRAL WISCONSIN

CITY           SKY/WX    TMP DP  RH WIND       PRES   REMARKS
BARABOO/DELLS  PTSUNNY   65  63  94 SW8       29.93S
LONE ROCK      CLOUDY    70  66  87 W7        29.94F FOG
WATERTOWN      CLOUDY    65  64  95 SW6       29.92S
MADISON        CLOUDY    67  64  90 W7        29.94R
MIDDLETON      CLOUDY    68  67  98 W10       29.95R
MONROE         CLOUDY    64  63  94 W9        29.96R
JANESVILLE     CLOUDY    64  63  94 W8        29.95R
$$

WIZ051-052-058>065-066-070>072-131400-
SOUTHEAST WISCONSIN

CITY           SKY/WX    TMP DP  RH WIND       PRES   REMARKS
MILWAUKEE      MOSUNNY   68  62  81 W12       29.91S
WAUKESHA       PTSUNNY   64  63  94 W12       29.93R
MILWAUKEE/TIMM SUNNY     66  61  82 W13       29.91S
RACINE         MOSUNNY   67  63  87 W8        29.93S
BURLINGTON     PTSUNNY   65  63  94 CALM      29.94R
KENOSHA        MOSUNNY   67  64  90 W9        29.93R
FOND DU LAC    MOSUNNY   67  62  84 SW7       29.90S
SHEBOYGAN      SUNNY     67  62  84 W15G22    29.89R
WEST BEND      PTSUNNY   66  61  82 W12       29.91S
JUNEAU         CLOUDY    64  49  58 W7        29.93S
$$

LSZ147-162-131400-
LAKE SUPERIOR

STATION/POSITION TIME  TEMP    WIND        PRES    WAVE
                       AIR SEA DIR/SP/G            HT/PER
                 (UTC) (F)     (DEG/KT/KT) (MB)    (FT/S)
W MID LAKE BUOY  1250   46 38  250/ 12/ 14 1011.1R   1/ 4
PORT WING        1200   58     240/  6/  9 1012.9
SAXON HARBOR     1200           CALM  /  6 1012.5R
$$

LMZ867-665-643>646-131400-
LAKE MICHIGAN

STATION/POSITION TIME  TEMP    WIND        PRES    WAVE
                       AIR SEA DIR/SP/G            HT/PER
                 (UTC) (F)     (DEG/KT/KT) (MB)    (FT/S)
N MID LAKE BUOY  1250   62 58  250/ 12/ 14 1008.5R   1/ 3
NORTHPORT PIER   1200   66     270/  5/ 11 1009.5R
KEWAUNEE LAKESHO 1200   65     290/  7/ 13 1011.3R
SHEBOYGAN LAKESH 1300   69     270/ 11/ 13 1011.7R
PORT WASHINGTON  1200   68     290/  8/ 14 1012.2
MILWAUKEE LAKESH 1200   65     280/ 11/ 15   N/A
S MID LAKE BUOY  1250   65 64  260/  8/  8 1013.1R   1/ 4
KENOSHA   LAKESH 1300   67     280/  9/ 12   N/A
$$

TC  - TEMPERATURE IN CELSIUS
VSB - VISIBILITY IN STATUTE MILES
WCI - WIND CHILL INDEX
HX  - HEAT INDEX




USA.gov is the U.S. government's official web portal to all federal, state and local government web resources and services.